Tracking 35280 objects as of 7-Sep-2026
HD Live streaming from Space Station
objects crossing your sky now

STARLINK-1154

Track STARLINK-1154 now!
10-day predictions
STARLINK-1154 is classified as:


NORAD ID: 45198
Int'l Code: 2020-012W
Launch date: February 17, 2020
Source: United States (US)
Launch site: AIR FORCE EASTERN TEST RANGE (AFETR)
Your satellite tracking list
Your tracking list is empty




NASA's NSSDC Master Catalog

Two Line Element Set (TLE):
1 45198U 20012W   26250.15667898  .00045895  00000-0  35795-3 0  9990
2 45198  53.0375 204.8572 0001640  40.6720 319.4419 15.71244349363632
Source of the keplerian elements: AFSPC